This is the latest recevied weather packets stored in our database for station/object N9GKE-1. If no packets are shown the sender has not sent any weather packets the latest 1 day(s).
| Time | Temp. | Humidity | Pressure | Rain* | Wind** | Luminosity | Snow |
|---|---|---|---|---|---|---|---|
| 1778069495 | 7.78° C | 97% | 1012.6 hPa | 0 mm | - | - | - |
| 1778068896 | 6.67° C | 97% | 1012.4 hPa | 0 mm | - | - | - |
| 1778068151 | 6.11° C | 96% | 1012.3 hPa | 0 mm | - | - | - |
| 1778066495 | 5° C | 95% | 1011.8 hPa | 0 mm | - | - | - |
| 1778066350 | 5° C | 95% | 1011.9 hPa | 0 mm | - | - | - |
| 1778065894 | 5° C | 95% | 1011.8 hPa | 0 mm | - | - | - |
| 1778065750 | 5° C | 95% | 1011.7 hPa | 0 mm | - | - | - |
| 1778064695 | 5.56° C | 95% | 1011.2 hPa | 0 mm | - | - | - |
| 1778064549 | 5.56° C | 95% | 1011.1 hPa | 0 mm | - | - | - |
| 1778063350 | 6.11° C | 95% | 1010.9 hPa | 0 mm | - | - | - |
| 1778062894 | 6.11° C | 95% | 1011.1 hPa | 0 mm | - | - | - |
| 1778062294 | 6.67° C | 95% | 1010.9 hPa | 0 mm | - | - | - |
| 1778062149 | 6.67° C | 95% | 1010.9 hPa | 0 mm | - | - | - |
| 1778061549 | 6.67° C | 95% | 1010.7 hPa | 0 mm | - | - | - |
| 1778061094 | 6.67° C | 95% | 1010.4 hPa | 0 mm | - | - | - |
| 1778060949 | 6.67° C | 95% | 1010.5 hPa | 0 mm | - | - | - |
| 1778059895 | 7.22° C | 95% | 1010.5 hPa | 0 mm | - | - | - |
| 1778059750 | 7.22° C | 95% | 1010.6 hPa | 0 mm | - | - | - |
| 1778059295 | 7.22° C | 95% | 1010.7 hPa | 0 mm | - | - | - |
| 1778059150 | 7.22° C | 95% | 1010.7 hPa | 0 mm | - | - | - |
| 1778058695 | 7.22° C | 95% | 1010.4 hPa | 0 mm | - | - | - |
| 1778058550 | 7.22° C | 95% | 1010.3 hPa | 0 mm | - | - | - |
| 1778057350 | 7.78° C | 95% | 1010.4 hPa | 0 mm | - | - | - |
| 1778056750 | 7.78° C | 95% | 1010.4 hPa | 0 mm | - | - | - |
| 1778056294 | 7.78° C | 95% | 1010.3 hPa | 0 mm | - | - | - |
* Rain latest hour (hover to see other rain measurements)
** Current wind speed in m/s (hover to see current wind gust speed)